Weather reports worldwide

Advertisment
Marienberg, Germany (10579): temperature & dewpoint: 18.01.2020 04:00:00 - 24.01.2020 04:00:00 (CET)Marienberg, Germany (10579): temperature 5cm & temperature -5cm: 18.01.2020 04:00:00 - 24.01.2020 04:00:00 (CET)Marienberg, Germany (10579): temperature -20cm & temperature -100cm: 18.01.2020 04:00:00 - 24.01.2020 04:00:00 (CET)Marienberg, Germany (10579): wind speed & gusts: 18.01.2020 04:00:00 - 24.01.2020 04:00:00 (CET)Marienberg, Germany (10579): wind direction: 18.01.2020 04:00:00 - 24.01.2020 04:00:00 (CET)Marienberg, Germany (10579): reduced air pressure: 18.01.2020 04:00:00 - 24.01.2020 04:00:00 (CET)Marienberg, Germany (10579): visibility: 18.01.2020 04:00:00 - 24.01.2020 04:00:00 (CET)Marienberg, Germany (10579): sunshine duration: 18.01.2020 04:00:00 - 24.01.2020 04:00:00 (CET)Marienberg, Germany (10579): precipitation: 18.01.2020 04:00:00 - 24.01.2020 04:00:00 (CET)
Date & Time tt [°C] td [°C] tt 5cm [°C] tt -5cm [°C] tt -20cm [°C] tt -100cm [°C] ff [km/h] ff [kn] fx [km/h] fx [kn] dd ppp [hPa] vv [km] sd [min] rr [mm]
24.01.2020 04:00:00 -4,7 -7,0 -6,7 -2,2 0,7 4,8 9 5 14 8 SW 1026,8 28 0 0,0
24.01.2020 03:00:00 -6,3 -7,4 -8,7 -1,9 0,7 4,8 4 2 13 7 SSW 1028,1 12 0 0,0
24.01.2020 02:00:00 -4,0 -5,9 -6,3 -1,7 0,7 4,9 5 3 11 6 SE 1027,8 24 0 0,0
24.01.2020 01:00:00 -3,4 -5,5 -5,1 -1,4 0,7 4,9 5 3 20 11 ESE 1028,3 22 0 0,0
24.01.2020 00:00:00 -3,0 -5,1 -5,0 -1,1 0,7 4,9 5 3 16 9 SE 1028,7 23 0 0,0
23.01.2020 23:00:00 -2,3 -4,8 -3,8 -0,8 0,7 4,9 10 5 27 15 SSE 1028,8 24 0 0,0
23.01.2020 22:00:00 -1,9 -4,6 -3,1 -0,5 0,7 4,9 13 7 27 15 SE 1028,7 28 0 0,0
23.01.2020 21:00:00 -1,9 -4,5 -3,3 -0,1 0,7 4,9 9 5 20 11 SE 1029,3 23 0 0,0
23.01.2020 20:00:00 -2,1 -4,3 -3,9 0,0 0,7 4,9 6 3 17 9 SSE 1030,0 32 0 0,0
23.01.2020 19:00:00 -2,0 -4,1 -3,1 0,0 0,7 4,9 9 5 18 10 SE 1030,6 31 0 0,0
23.01.2020 18:00:00 -2,0 -4,1 -3,3 0,0 0,7 4,9 8 5 16 9 S 1031,2 32 0 0,0
23.01.2020 17:00:00 -2,0 -4,1 -2,8 0,0 0,7 4,9 8 4 15 8 SSE 1031,4 28 31 0,0
23.01.2020 16:00:00 -0,6 -3,2 -1,6 0,0 0,7 4,9 5 3 18 10 ESE 1031,9 29 60 0,0
23.01.2020 15:00:00 0,2 -2,9 0,7 0,0 0,7 4,9 10 5 19 10 SE 1032,1 37 55 0,0
23.01.2020 14:00:00 0,5 -2,8 1,7 0,0 0,7 4,9 8 4 18 10 SE 1032,8 31 28 0,0
23.01.2020 13:00:00 -0,4 -2,8 -0,3 0,0 0,7 4,9 10 5 21 11 SE 1034,0 30 13 0,0
23.01.2020 12:00:00 -0,4 -2,6 0,0 -0,1 0,7 4,9 6 3 16 8 SSE 1034,7 42 2 0,0
23.01.2020 11:00:00 -1,1 -2,9 -1,0 -0,1 0,7 4,9 5 3 16 9 SE 1036,0 30 0 0,0
23.01.2020 10:00:00 -1,3 -3,3 -1,3 -0,1 0,8 4,9 8 4 14 8 ESE 1036,2 30 0 0,0
23.01.2020 09:00:00 -0,9 -2,1 -1,0 -0,1 0,8 4,9 3 1 6 3 SE 1036,4 14 0 0,0
23.01.2020 08:00:00 -0,8 -2,8 -1,3 -0,1 0,8 4,9 4 2 11 6 SSE 1036,4 38 0 0,0
23.01.2020 07:00:00 -0,8 -1,8 -0,9 -0,1 0,8 4,9 3 1 10 5 SW 1036,3 17 0 0,0
23.01.2020 06:00:00 -0,8 -1,8 -0,9 -0,1 0,8 4,9 0 0 9 5 N 1036,1 18 0 0,0
23.01.2020 05:00:00 -0,6 -1,3 -0,7 -0,1 0,8 4,9 0 0 6 3 N 1036,2 8 0 0,0
23.01.2020 04:00:00 -0,6 -0,8 -0,6 -0,1 0,8 4,9 0 0 6 3 N 1036,4 5 0 0,0
23.01.2020 03:00:00 -0,5 -0,8 -0,5 -0,1 0,8 5,0 3 1 6 3 SSW 1036,6 7 0 0,0
23.01.2020 02:00:00 -0,4 -0,8 -0,5 -0,1 0,8 5,0 0 0 7 4 N 1037,0 7 0 0,0
23.01.2020 01:00:00 -0,4 -0,9 -0,9 -0,1 0,8 5,0 5 3 10 6 NNW 1036,8 6 0 0,0
23.01.2020 00:00:00 -0,3 -0,4 -0,3 -0,1 0,8 5,0 8 4 12 6 WSW 1036,4 2,6 0 0,0
22.01.2020 23:00:00 -0,3 -0,4 -0,3 -0,1 0,8 5,0 5 3 10 5 W 1036,7 2,2 0 0,0
22.01.2020 22:00:00 -0,4 -0,4 -0,2 -0,1 0,8 5,0 6 4 13 7 WNW 1036,3 0,1 0 0,0
22.01.2020 21:00:00 -0,4 -0,4 -0,3 -0,1 0,8 5,0 5 3 14 8 NW 1036,1 0,2 0 0,0
22.01.2020 20:00:00 -0,4 -0,4 -0,2 -0,1 0,8 5,0 6 4 16 8 NNW 1035,9 0,2 0 0,0
22.01.2020 19:00:00 -0,3 -0,3 0,0 -0,1 0,8 5,0 8 4 16 9 WNW 1035,3 0,1 0 0,0
22.01.2020 18:00:00 -0,3 -0,3 0,0 -0,1 0,8 5,0 11 6 19 10 WNW 1034,7 0,3 0 0,1
22.01.2020 17:00:00 -0,3 -0,3 -0,2 -0,1 0,8 5,0 11 6 24 13 WNW 1034,1 0,4 0 0,0
22.01.2020 16:00:00 -0,1 -0,1 0,2 -0,2 0,8 5,0 12 7 22 12 WNW 1033,6 0,5 0 0,0
22.01.2020 15:00:00 0,0 -0,3 0,3 -0,2 0,8 5,0 11 6 19 10 WNW 1033,3 1,0 0 0,0
22.01.2020 14:00:00 -0,2 -1,2 0,8 -0,3 0,8 5,0 7 4 19 11 WNW 1033,5 9 0 0,0
22.01.2020 13:00:00 -0,2 -1,7 0,5 -0,3 0,8 5,0 11 6 23 12 W 1033,9 9 0 0,0
22.01.2020 12:00:00 0,4 -4,4 2,3 -0,5 0,8 5,0 9 5 22 12 W 1034,3 35 19 0,0
22.01.2020 11:00:00 -1,1 -5,2 0,0 -0,7 0,9 5,0 13 7 29 16 SW 1034,8 30 59 0,0
22.01.2020 10:00:00 -1,4 -6,8 0,3 -1,3 0,9 5,0 12 7 22 12 WNW 1035,8 47 60 0,0
22.01.2020 09:00:00 -0,9 -9,8 -2,6 -1,9 0,9 5,0 14 8 31 17 WSW 1034,3 75 40 0,0
22.01.2020 08:00:00 -2,1 -8,2 -3,7 -2,1 0,9 5,0 20 11 33 18 WSW 1034,0 61 0 0,0
22.01.2020 07:00:00 -3,2 -7,9 -4,9 -2,2 0,9 5,0 14 8 23 12 WSW 1035,2 71 0 0,0
22.01.2020 06:00:00 -2,9 -7,9 -6,4 -2,1 1,0 5,0 7 4 19 10 W 1035,9 62 0 0,0
22.01.2020 05:00:00 -2,9 -8,2 -5,2 -2,0 1,0 5,0 13 7 20 11 WSW 1035,7 75 0 0,0
22.01.2020 04:00:00 -3,3 -8,1 -7,3 -1,9 1,0 5,0 5 3 10 6 WSW 1036,8 75 0 0,0
22.01.2020 03:00:00 -3,4 -7,8 -7,3 -1,7 1,0 5,0 7 4 10 6 W 1037,1 75 0 0,0
22.01.2020 02:00:00 -1,3 -8,1 -5,8 -1,6 1,0 5,0 8 5 14 8 W 1037,1 65 0 0,0
22.01.2020 01:00:00 -2,4 -7,6 -6,7 -1,4 1,1 5,0 7 4 14 7 W 1037,7 75 0 0,0
22.01.2020 00:00:00 -1,8 -7,5 -6,3 -1,2 1,1 5,0 9 5 14 8 WSW 1038,0 75 0 0,0
21.01.2020 23:00:00 -2,9 -7,0 -7,0 -0,9 1,1 5,0 7 4 10 5 W 1039,3 71 0 0,0
21.01.2020 22:00:00 -1,5 -5,8 -5,4 -0,4 1,1 5,0 8 4 11 6 W 1039,5 66 0 0,0
21.01.2020 21:00:00 -2,6 -4,8 -5,7 -0,1 1,1 5,1 8 4 11 6 WSW 1040,3 42 0 0,0
21.01.2020 20:00:00 -1,4 -4,3 -5,1 0,0 1,1 5,1 6 4 15 8 WSW 1040,3 46 0 0,0
21.01.2020 19:00:00 -2,1 -3,5 -5,0 0,0 1,1 5,1 6 3 8 4 WSW 1040,7 35 0 0,0
21.01.2020 18:00:00 -2,0 -3,7 -4,7 0,0 1,1 5,1 4 2 6 4 WSW 1040,8 36 0 0,0
21.01.2020 17:00:00 -0,6 -3,1 -3,5 0,0 1,1 5,1 4 2 5 3 SW 1040,6 40 32 0,0
21.01.2020 16:00:00 2,2 -3,0 -0,7 0,0 1,1 5,1 4 2 8 4 WSW 1040,1 58 60 0,0
21.01.2020 15:00:00 3,8 -4,8 4,6 0,0 1,2 5,1 5 3 9 5 W 1040,2 68 60 0,0
21.01.2020 14:00:00 3,4 -5,9 5,8 -0,1 1,2 5,1 6 3 10 5 W 1040,8 61 60 0,0
21.01.2020 13:00:00 3,6 -5,6 5,1 -0,2 1,2 5,1 5 3 10 6 WSW 1041,3 73 60 0,0
21.01.2020 12:00:00 2,2 -5,9 4,7 -0,3 1,2 5,1 6 3 9 5 WSW 1042,5 61 60 0,0
21.01.2020 11:00:00 0,9 -3,8 2,2 -0,4 1,3 5,1 4 2 8 5 SW 1043,0 66 60 0,0
21.01.2020 10:00:00 -1,7 -4,3 0,5 -1,0 1,3 5,1 5 3 8 5 WSW 1044,0 51 60 0,0
21.01.2020 09:00:00 -4,8 -5,8 -7,3 -1,5 1,4 5,1 7 4 8 5 WSW 1044,9 45 39 0,0
21.01.2020 08:00:00 -6,1 -7,5 -9,0 -1,5 1,4 5,1 3 2 8 4 WSW 1045,3 35 0 0,0
21.01.2020 07:00:00 -6,1 -7,4 -8,8 -1,3 1,4 5,1 6 3 7 4 W 1045,3 29 0 0,0
21.01.2020 06:00:00 -5,5 -6,3 -8,5 -1,2 1,5 5,1 3 2 6 4 SW 1045,5 26 0 0,0
21.01.2020 05:00:00 -5,2 -6,3 -7,9 -1,0 1,5 5,1 3 1 5 3 SSE 1045,6 22 0 0,0
21.01.2020 04:00:00 -4,1 -5,8 -6,6 -0,8 1,6 5,1 3 1 14 8 WNW 1045,6 27 0 0,0
21.01.2020 03:00:00 -3,8 -4,9 -6,6 -0,6 1,6 5,1 3 1 8 4 SW 1046,2 35 0 0,0
21.01.2020 02:00:00 -3,7 -4,7 -6,9 -0,3 1,7 5,1 3 1 10 5 N 1047,0 24 0 0,0
21.01.2020 01:00:00 -3,1 -4,6 -6,3 0,0 1,7 5,1 5 3 12 6 SSW 1047,0 27 0 0,0
21.01.2020 00:00:00 -2,9 -4,6 -5,3 0,1 1,8 5,1 7 4 12 7 S 1047,5 28 0 0,0
20.01.2020 23:00:00 -3,6 -4,7 -6,3 0,2 1,8 5,1 5 3 10 5 SSW 1048,0 15 0 0,0
20.01.2020 22:00:00 -3,5 -4,4 -5,3 0,3 1,8 5,1 4 2 6 3 W 1048,3 19 0 0,0
20.01.2020 21:00:00 -3,0 -3,5 -4,6 0,4 1,9 5,1 0 0 5 3 N 1048,4 16 0 0,0
20.01.2020 20:00:00 -2,2 -3,0 -4,6 0,4 1,9 5,1 3 2 6 3 SW 1048,0 12 0 0,0
20.01.2020 19:00:00 -0,9 -2,9 -2,3 0,5 2,0 5,1 3 2 9 5 SW 1047,7 22 0 0,0
20.01.2020 18:00:00 -0,5 -2,3 -1,4 0,5 2,0 5,1 3 1 9 5 W 1047,4 21 0 0,0
20.01.2020 17:00:00 -0,1 -3,0 -1,0 1,1 1,9 5,1 4 2 11 6 WSW 1047,1 30 0 0,0
20.01.2020 16:00:00 0,3 -3,0 0,2 2,1 1,8 5,1 2 1 6 4 W 1047,2 29 0 0,0
20.01.2020 15:00:00 0,5 -2,9 1,0 2,5 1,7 5,1 3 1 10 5 NW 1047,5 29 0 0,0
20.01.2020 14:00:00 0,5 -2,0 1,3 2,3 1,7 5,1 6 3 13 7 NW 1047,8 24 8 0,0
20.01.2020 13:00:00 0,7 -2,4 1,4 1,1 1,6 5,1 5 3 13 7 WNW 1047,9 33 0 0,0
20.01.2020 12:00:00 0,1 -1,4 0,6 0,6 1,6 5,1 6 3 9 5 WNW 1047,9 16 0 0,0
20.01.2020 11:00:00 0,0 -1,5 0,1 0,5 1,7 5,1 4 2 8 5 WNW 1048,1 16 0 0,0
20.01.2020 10:00:00 -0,1 -1,0 0,0 0,4 1,7 5,1 3 2 9 5 NW 1047,4 9 0 0,0
20.01.2020 09:00:00 -0,4 -1,0 -0,5 0,4 1,7 5,1 3 2 9 5 NNW 1046,5 6 0 0,0
20.01.2020 08:00:00 -0,6 -1,1 -1,8 0,4 1,7 5,1 2 1 9 5 NNW 1046,2 5 0 0,0
20.01.2020 07:00:00 -0,4 -0,9 -0,6 0,4 1,7 5,1 3 2 11 6 NW 1045,9 6 0 0,0
20.01.2020 06:00:00 -0,4 -0,8 -0,5 0,4 1,7 5,1 4 2 10 5 NW 1045,6 5 0 0,0
20.01.2020 05:00:00 -0,4 -0,9 -0,5 0,4 1,7 5,1 6 3 11 6 NW 1044,9 7 0 0,0
20.01.2020 04:00:00 -0,4 -0,9 -0,6 0,4 1,8 5,1 6 3 8 5 NW 1044,5 8 0 0,0
20.01.2020 03:00:00 -0,3 -0,6 -0,8 0,4 1,8 5,1 4 2 9 5 WNW 1044,6 8 0 0,0
20.01.2020 02:00:00 -0,3 -0,9 -0,7 0,4 1,8 5,1 4 2 8 5 NW 1043,9 10 0 0,0
20.01.2020 01:00:00 -0,2 -0,7 -0,4 0,4 1,8 5,1 4 2 13 7 N 1043,8 9 0 0,0
20.01.2020 00:00:00 -0,1 -0,7 -0,3 0,4 1,9 5,1 6 3 14 7 NW 1043,1 8 0 0,0
19.01.2020 23:00:00 0,0 -0,5 -0,3 0,4 1,9 5,1 8 5 16 9 NW 1042,3 8 0 0,0
19.01.2020 22:00:00 0,0 -0,6 -0,2 0,4 1,9 5,1 7 4 14 7 N 1041,8 11 0 0,4
19.01.2020 21:00:00 0,0 -0,7 -0,3 0,4 1,9 5,1 7 4 15 8 N 1041,2 12 0 0,1
19.01.2020 20:00:00 0,0 -0,3 -0,2 0,5 2,0 5,1 5 3 9 5 NNW 1040,6 5 0 0,0
19.01.2020 19:00:00 -0,2 -0,6 -0,3 0,5 2,0 5,1 6 3 14 8 NW 1039,9 6 0 0,0
19.01.2020 18:00:00 -0,3 -0,6 -0,3 0,5 2,0 5,1 6 3 16 9 NW 1039,0 6 0 0,2
19.01.2020 17:00:00 -0,4 -0,4 -0,2 0,6 2,0 5,1 6 3 14 8 NNW 1038,2 0,5 0 0,0
19.01.2020 16:00:00 -0,4 -0,5 -0,1 0,7 2,0 5,1 8 4 16 9 NW 1037,3 1,9 0 0,7
19.01.2020 15:00:00 -0,1 -0,8 0,1 1,2 2,0 5,1 6 4 18 10 NW 1036,4 2,9 0 0,1
19.01.2020 14:00:00 -0,1 -1,1 0,5 1,5 2,0 5,1 11 6 19 11 WNW 1035,6 19 0 0,0
19.01.2020 13:00:00 -0,4 -0,8 0,6 1,0 2,0 5,1 8 5 16 9 WNW 1035,4 1,8 0 0,0
19.01.2020 12:00:00 -0,5 -1,1 0,3 0,6 2,1 5,1 9 5 16 8 WNW 1035,1 14 0 0,1
19.01.2020 11:00:00 -0,6 -0,9 -0,2 0,6 2,1 5,1 7 4 16 9 WNW 1034,6 1,4 0 0,3
19.01.2020 10:00:00 -0,6 -1,3 -0,2 0,6 2,1 5,1 8 4 12 7 W 1033,4 6 0 0,0
19.01.2020 09:00:00 -0,7 -1,4 -0,6 0,6 2,1 5,1 6 4 15 8 WNW 1032,7 12 0 0,0
19.01.2020 08:00:00 -0,8 -1,4 -0,8 0,6 2,2 5,1 8 4 18 10 WNW 1031,8 8 0 0,0
19.01.2020 07:00:00 -0,7 -1,2 -0,8 0,6 2,2 5,1 9 5 18 10 WNW 1031,2 8 0 0,0
19.01.2020 06:00:00 -0,6 -1,1 -0,5 0,6 2,3 5,1 12 7 21 11 WNW 1030,5 6 0 0,1
19.01.2020 05:00:00 -0,5 -0,8 -0,4 0,6 2,3 5,1 10 5 21 11 WNW 1029,8 3,3 0 0,4
19.01.2020 04:00:00 -0,4 -0,8 -0,3 0,6 2,4 5,1 10 6 19 11 WNW 1029,1 3,5 0 0,2
19.01.2020 03:00:00 -0,1 -0,9 -0,1 0,7 2,4 5,1 13 7 23 12 WNW 1028,8 6 0 0,0
19.01.2020 02:00:00 0,5 -1,3 0,3 0,8 2,5 5,1 8 4 16 9 W 1028,3 22 0 0,0
19.01.2020 01:00:00 0,7 -1,3 0,4 0,7 2,5 5,1 10 6 18 10 W 1027,8 37 0 0,0
19.01.2020 00:00:00 0,9 -1,6 0,3 0,9 2,6 5,1 7 4 18 10 W 1027,4 26 0 0,0
18.01.2020 23:00:00 1,2 -1,6 0,7 0,8 2,7 5,1 6 4 16 8 W 1027,0 43 0 0,0
18.01.2020 22:00:00 1,1 -2,0 0,4 0,8 2,7 5,1 7 4 14 8 WSW 1027,0 46 0 0,0
18.01.2020 21:00:00 1,3 -2,1 0,6 0,8 2,8 5,1 7 4 18 10 WSW 1026,7 47 0 0,0
18.01.2020 20:00:00 1,5 -2,2 0,8 0,9 2,9 5,1 9 5 15 8 WSW 1026,6 47 0 0,0
18.01.2020 19:00:00 1,4 -2,3 0,4 0,9 3,0 5,1 9 5 15 8 WSW 1026,3 44 0 0,0
18.01.2020 18:00:00 2,0 -2,9 0,9 1,7 3,0 5,1 11 6 26 14 W 1026,1 53 0 0,0
18.01.2020 17:00:00 2,3 -2,3 1,7 2,2 3,0 5,1 7 4 21 11 W 1025,6 56 0 0,0
18.01.2020 16:00:00 2,5 -2,2 1,8 2,9 3,0 5,1 11 6 25 14 W 1025,3 59 0 0,0
18.01.2020 15:00:00 2,9 -2,1 2,9 3,4 2,9 5,1 11 6 26 14 W 1025,0 75 0 0,0
18.01.2020 14:00:00 3,5 -1,8 4,2 3,6 2,9 5,1 15 8 29 16 W 1024,5 75 0 0,0
18.01.2020 13:00:00 3,2 -1,7 3,7 3,5 2,8 5,1 14 8 24 13 W 1025,1 63 1 0,0
18.01.2020 12:00:00 2,9 -1,8 3,3 3,0 2,8 5,1 13 7 25 13 W 1025,0 61 0 0,0
18.01.2020 11:00:00 2,5 -1,1 2,7 2,4 2,8 5,1 14 7 26 14 W 1025,5 48 0 0,0
18.01.2020 10:00:00 2,3 -1,1 2,2 2,0 2,8 5,1 16 8 28 15 W 1025,4 55 0 0,0
18.01.2020 09:00:00 2,4 -0,5 1,8 2,0 2,8 5,1 16 9 29 16 W 1025,2 44 0 0,0
18.01.2020 08:00:00 2,9 0,8 2,5 2,1 2,8 5,1 12 7 26 14 W 1024,5 32 0 0,0
18.01.2020 07:00:00 3,2 1,1 2,6 2,1 2,8 5,1 9 5 22 12 WNW 1023,7 31 0 0,0
18.01.2020 06:00:00 3,8 1,4 3,0 2,3 2,8 5,1 13 7 27 14 W 1022,8 36 0 0,0
18.01.2020 05:00:00 4,1 1,4 2,8 2,5 2,8 5,1 7 4 16 8 W 1022,2 45 0 0,0
18.01.2020 04:00:00 4,3 1,7 3,6 2,8 2,7 5,1 11 6 25 13 W 1021,8 39 0 0,0

tt = temperature
td = dewpoint
tt 5cm = temperature 5cm
tt -5cm = temperature -5cm
tt -20cm = temperature -20cm
tt -100cm = temperature -100cm
ff = wind speed
fx = gusts
dd = wind direction
ppp = reduced air pressure
vv = visibility
sd = sunshine duration
rr = precipitation

Next stations